Lexington Weather

Lexington, Massachusetts, USA

52°F
10/17/2021 9:47pm 
  • Lexington Conditions: Partly cloudy
  • Temperature: 52.2°F / 11.2°CColder 0.9°F than last hour.
  • Dew Point: 46.8°FDecreased 0.9°Fsince last hour.
  • Relative Humidity: 82
  • Wind: Calm, 10-min avg: Calm, gust: 2 mph
  • Barometer: 29.68 in Steady
  • Visibility: 10 miles
  • Rain Today: 0.35 in
  •   

Regional Weather Roundup
for Boston / Norton, MA

        
000
ASUS41 KBOX 120304
RWRBOX

REGIONAL WEATHER ROUNDUP
NATIONAL WEATHER SERVICE BOSTON/NORTON MA
1100 PM EDT MON OCT 11 2021

NOTE:  "FAIR" INDICATES FEW OR NO CLOUDS BELOW 12,000 FEET WITH NO 
SIGNIFICANT WEATHER AND/OR OBSTRUCTIONS TO VISIBILITY.

MAZALL-120400-
EASTERN MASSACHUSETTS
  
CITY           SKY/WX    TMP DP  RH WIND       PRES   REMARKS
BOSTON         PTCLDY    62  59  90 CALM      30.13S                  
BEVERLY        MOCLDY    54  52  93 CALM      30.12F                  
LAWRENCE       CLEAR     55  54  96 CALM      30.15S                  
BEDFORD        CLOUDY    57  56  96 CALM      30.12F FOG              
BLUE HILL      NOT AVBL                                               
NORWOOD        FOG       60  58  92 NE3       30.12F VSB 1/4          
MARSHFIELD     MOCLDY    55  55 100 CALM      30.12S                  
PLYMOUTH       PTCLDY    57  56  96 CALM      30.12F FOG              
TAUNTON        CLOUDY    53  52  96 CALM      30.12F FOG              
NEW BEDFORD    CLEAR     56  55  97 CALM      30.11F FOG              
$$

MAZALL-120400-
CAPE COD AND THE ISLANDS
  
CITY           SKY/WX    TMP DP  RH WIND       PRES   REMARKS
FALMOUTH       CLEAR     55  57 100 E5        30.12S                  
HYANNIS        CLEAR     57  56  96 CALM      30.11S                  
CHATHAM        CLEAR     58  57  97 N3        30.13R                  
PROVINCETOWN   CLEAR     52  52 100 E3        30.13S FOG              
NANTUCKET      CLEAR     59  56  89 NE8       30.11R                  
MARTHAS VNYRD  CLEAR     56  55  97 NE6       30.11S                  
$$
 
MAZALL-120400-
CENTRAL AND WESTERN MASSACHUSETTS
  
CITY           SKY/WX    TMP DP  RH WIND       PRES   REMARKS
WORCESTER      FOG       55  54  96 CALM      30.15S VSB 1/4          
FITCHBURG      CLEAR     54  52  93 CALM      30.15S                  
ORANGE         FOG       53  52  96 CALM      30.14F VSB 1/4          
SPRINGFIELD    CLEAR     53  53 100 CALM      30.12S                  
WESTFIELD      CLEAR     55  54  96 CALM      30.13S                  
NORTH ADAMS    CLEAR     55  52  89 SE6       30.13S                  
PITTSFIELD     MOCLDY    52  51  97 CALM      30.13S FOG              
$$
 
RIZALL-120400-
RHODE ISLAND
  
CITY           SKY/WX    TMP DP  RH WIND       PRES   REMARKS
PROVIDENCE     PTCLDY    59  58  96 N3        30.13S                  
NEWPORT        CLEAR     57  57 100 NE7       30.11F                  
BLOCK ISLAND   CLEAR     61  58  90 NE7       30.12S                  
SMITHFIELD     CLEAR     53  53 100 CALM      30.13F                  
WESTERLY       CLEAR     57  56  96 CALM      30.12S                  
$$
 
CTZALL-120400-
CONNECTICUT
  
CITY           SKY/WX    TMP DP  RH WIND       PRES   REMARKS
BRADLEY INTL   PTCLDY    54  54 100 NW5       30.13S                  
HARTFORD       CLEAR     56  55  97 CALM      30.12R                  
BRIDGEPORT     MOCLDY    65  61  87 N5        30.12R                  
DANBURY        PTCLDY    58  55  90 CALM      30.14R                  
GROTON         CLEAR     59  57  93 NE8       30.10F                  
NEW HAVEN      CLEAR     63  61  93 NE3       30.11R                  
CHESTER        FAIR      59  59 100 CALM      30.12S                  
MERIDEN        CLEAR     57  54  89 CALM      30.11S                  
WILLIMANTIC    CLEAR     53  52  96 NE5       30.13S                  
OXFORD         CLEAR     56  56 100 NW3       30.14R                  
$$

MEZ002-015-021-024-NHZ003-005-008-011-012-014-VTZ005-008-120400-
NORTHERN NEW ENGLAND
  
CITY           SKY/WX    TMP DP  RH WIND       PRES   REMARKS
PORTLAND ME    CLEAR     54  53  97 CALM      30.12F                  
BANGOR ME      PTCLDY    51  51 100 CALM      30.11F                  
CONCORD NH     FOG       53  52  96 CALM      30.14S VSB 1/4          
MANCHESTER NH  PTCLDY    58  54  86 SE3       30.11F                  
NASHUA NH      CLEAR     55  55 100 CALM      30.14F                  
PORTSMOUTH NH  PTCLDY    54  53  95 CALM      30.14F                  
JAFFREY NH     PTCLDY    51  51 100 CALM      30.15S                  
KEENE NH       FOG       53  53 100 CALM      30.15S VSB 1/4          
BURLINGTON VT  CLEAR     65  56  72 S6        30.08R                  
MT. WASHINGTON MOCLDY    50  39  66 W8          N/A                   
$$

NYZ052-076-120400-
EASTERN NEW YORK
  
CITY           SKY/WX    TMP DP  RH WIND       PRES   REMARKS
ALBANY         PTCLDY    57  54  89 CALM      30.11S                  
NEW YORK CITY  MOCLDY    66  59  78 NE7       30.10S                  
$$
 
ANZALL-120400-
MARINE OBSERVATIONS
  
STATION/POSITION TIME  TEMP    WIND        PRES    VSBY  WAVE
                       AIR SEA DIR/SP/G                  HT/PER
                 (UTC) (F)     (DEG/KT/KT) (MB)    (MI)  (FT/S)
BOSTON BUOY      0240      63   20/  2/  2 1020.8F
BUZZARDS BAY     0200           30/ 14/ 14 1020.6R
NANTUCKET SOUND  0250   64 65   60/ 10/ 12 1019.7S         1/ 3
MASS BAY-STELLWA 0204   61     350/  4/  4 1020.3R  1 7/8  4/ 8
ISLE OF SHOALS   0200   61     240/  7/  7 1020.1R
S OF BLOCK IS    0226      64                N/A           9/ 9
$$

......................KEY.........................
  SKY/WX - SKY CONDITION/PRESENT WEATHER
  TMP    - TEMPERATURE IN FAHRENHEIT
  DWPT   - DEWPOINT IN FAHRENHEIT
  RH     - RELATIVE HUMIDITY IN PERCENT
  WIND   - DIRECTION AND SPEED IN MPH
  PRES   - MEAN SEA LEVEL PRESSURE IN INCHES OF HG
  WCI    - WIND CHILL INDEX
  VSB    - VISIBILITY IN MILES
  HX     - HEAT INDEX
  TC     - TEMPERATURE IN CELSIUS
  VRB    - VARIABLE WIND DIRECTION
  N/A    - NOT AVAILABLE
  
      

Other recent Regional Weather Roundups

Sun Oct 17, 9:04pm

Sun Oct 17, 8:04pm

Sun Oct 17, 7:04pm

Sun Oct 17, 6:04pm

Sun Oct 17, 5:04pm

Sun Oct 17, 4:04pm

Sun Oct 17, 3:04pm

Sun Oct 17, 2:04pm

Sun Oct 17, 1:04pm

Sun Oct 17, 12:04pm

Sun Oct 17, 11:04am

Sun Oct 17, 10:04am

Sun Oct 17, 9:04am

Sun Oct 17, 8:04am

Sun Oct 17, 7:04am

Sun Oct 17, 6:04am

Sun Oct 17, 5:04am

Sun Oct 17, 4:04am

Sun Oct 17, 3:04am

Sun Oct 17, 2:04am

Sun Oct 17, 1:04am

Sun Oct 17, 12:04am

Sat Oct 16, 11:04pm

Sat Oct 16, 10:04pm

Sat Oct 16, 9:04pm

Sat Oct 16, 8:04pm

Sat Oct 16, 7:04pm

Sat Oct 16, 6:04pm

Sat Oct 16, 5:04pm

Sat Oct 16, 4:04pm

Sat Oct 16, 3:04pm

Sat Oct 16, 2:04pm

Sat Oct 16, 1:04pm

Sat Oct 16, 12:04pm

Sat Oct 16, 11:04am

Sat Oct 16, 10:04am

Sat Oct 16, 9:04am

Sat Oct 16, 8:04am

Sat Oct 16, 7:04am

Sat Oct 16, 6:04am

Sat Oct 16, 5:04am

Sat Oct 16, 4:04am

Sat Oct 16, 3:04am

Sat Oct 16, 2:04am

Sat Oct 16, 1:04am

Sat Oct 16, 12:04am

Fri Oct 15, 11:04pm

Fri Oct 15, 10:04pm

Fri Oct 15, 9:04pm

Fri Oct 15, 8:04pm

Fri Oct 15, 7:04pm

Fri Oct 15, 6:04pm

Fri Oct 15, 5:04pm

Fri Oct 15, 4:04pm

Fri Oct 15, 3:04pm

Fri Oct 15, 2:05pm

Fri Oct 15, 1:05pm

Fri Oct 15, 12:04pm

Fri Oct 15, 11:05am

Fri Oct 15, 10:04am

Fri Oct 15, 9:04am

Fri Oct 15, 8:04am

Fri Oct 15, 7:04am

Fri Oct 15, 6:04am

Fri Oct 15, 5:04am

Fri Oct 15, 4:04am

Fri Oct 15, 3:05am

Fri Oct 15, 2:04am

Fri Oct 15, 1:04am

Fri Oct 15, 12:04am

Thu Oct 14, 11:04pm

Thu Oct 14, 10:04pm

Thu Oct 14, 9:04pm

Thu Oct 14, 8:04pm

Thu Oct 14, 7:04pm

Thu Oct 14, 6:04pm

Thu Oct 14, 5:04pm

Thu Oct 14, 4:04pm

Thu Oct 14, 3:04pm

Thu Oct 14, 2:04pm

Thu Oct 14, 1:04pm

Thu Oct 14, 12:04pm

Thu Oct 14, 11:04am

Thu Oct 14, 10:04am

Thu Oct 14, 9:04am

Thu Oct 14, 8:04am

Thu Oct 14, 7:04am

Thu Oct 14, 6:04am

Thu Oct 14, 5:04am

Thu Oct 14, 4:04am

Thu Oct 14, 3:04am

Thu Oct 14, 2:04am

Thu Oct 14, 1:04am

Thu Oct 14, 12:04am

Wed Oct 13, 11:04pm

Wed Oct 13, 10:04pm

Wed Oct 13, 9:04pm

Wed Oct 13, 8:04pm

Wed Oct 13, 7:04pm

Wed Oct 13, 6:04pm

Wed Oct 13, 5:04pm

Wed Oct 13, 4:04pm

Wed Oct 13, 3:04pm

Wed Oct 13, 2:04pm

Wed Oct 13, 1:04pm

Wed Oct 13, 12:04pm

Wed Oct 13, 11:04am

Wed Oct 13, 10:04am

Wed Oct 13, 9:04am

Wed Oct 13, 8:04am

Wed Oct 13, 7:04am

Wed Oct 13, 6:04am

Wed Oct 13, 5:04am

Wed Oct 13, 4:04am

Wed Oct 13, 3:04am

Wed Oct 13, 2:04am

Wed Oct 13, 1:04am

Wed Oct 13, 12:04am

Tue Oct 12, 11:04pm

Tue Oct 12, 10:04pm

Tue Oct 12, 9:04pm

Tue Oct 12, 8:04pm

Tue Oct 12, 7:04pm

Tue Oct 12, 6:04pm

Tue Oct 12, 5:04pm

Tue Oct 12, 4:04pm

Tue Oct 12, 3:04pm

Tue Oct 12, 2:04pm

Tue Oct 12, 1:04pm

Tue Oct 12, 12:04pm

Tue Oct 12, 11:05am

Tue Oct 12, 10:04am

Tue Oct 12, 9:04am

Tue Oct 12, 8:04am

Tue Oct 12, 7:04am

Tue Oct 12, 6:04am

Tue Oct 12, 5:04am

Tue Oct 12, 4:04am

Tue Oct 12, 3:04am

Tue Oct 12, 2:04am

Tue Oct 12, 1:04am

Tue Oct 12, 12:04am

Mon Oct 11, 10:04pm

Mon Oct 11, 9:04pm

Mon Oct 11, 8:04pm

Mon Oct 11, 7:04pm

Mon Oct 11, 6:04pm

Mon Oct 11, 5:04pm

Mon Oct 11, 4:04pm

Mon Oct 11, 3:04pm

Mon Oct 11, 2:04pm

Mon Oct 11, 1:04pm

Mon Oct 11, 12:04pm

Mon Oct 11, 11:04am

Mon Oct 11, 10:04am

Mon Oct 11, 9:04am

Mon Oct 11, 8:04am

Mon Oct 11, 7:04am

Mon Oct 11, 6:04am

Mon Oct 11, 5:04am

Mon Oct 11, 4:04am

Mon Oct 11, 3:04am

Mon Oct 11, 2:04am

Mon Oct 11, 1:04am

Mon Oct 11, 12:05am

Sun Oct 10, 11:04pm

Sun Oct 10, 10:04pm

Meta data:

ID: 423052c3-7db0-438b-a2df-cd16c4c3c321
Link: https://api.weather.gov/products/423052c3-7db0-438b-a2df-cd16c4c3c321